Weather History for 07240 - December, 2013

Change the Weather History Date:

Friday, December 20, 2013

  Actual Average Record
Temperature  
Mean Temperature 40 °F -  
Max Temperature 48 °F 43 °F - ()
Min Temperature 33 °F 34 °F - ()
Degree Days  
Heating Degree Days 24    
Moisture  
Dew Point 37 °F    
Average Humidity 83    
Maximum Humidity 100    
Minimum Humidity 54    
Precipitation  
Precipitation 0.08 in - - ()
Sea Level Pressure  
Sea Level Pressure 30.33 in    
Wind  
Wind Speed 5 mph ()    
Max Wind Speed 8 mph    
Max Gust Speed -    
Visibility 7.5 miles    
Events Rain    
T = Trace of Precipitation, MM = Missing Value Source: Averaged Metar Reports

Daily Weather History Graph

Daily Weather History Graph

Search for Another Location

Airport or City:

Trip Planner

Search our weather history database for the weather conditions in past years. The results will help you decide how hot, cold, wet, or windy it might be!

Date:

Astronomy

Dec. 20, 2013 Rise Set
Actual Time 8:41 AM CET 5:08 PM CET
Civil Twilight 8:05 AM CET 5:44 PM CET
Nautical Twilight 7:26 AM CET 6:23 PM CET
Astronomical Twilight 6:48 AM CET 7:00 PM CET
Moon 8:26 PM CET (12/20) 10:16 AM CET (12/20)
Length of Visible Light 9h 38m
Length of Day
8h 26m
Waning Gibbous, 92% of the Moon is Illuminated
Dec 20
Waning Gibbous
Dec 25
Last Quarter
Jan 1
New
Jan 8
First Quarter
Jan 16
Full

Hourly Weather History & Observations

Time (CET) Temp. Windchill Dew Point Humidity Pressure Visibility Wind Dir Wind Speed Gust Speed Precip Events Conditions
12:00 AM 42 °F - 38 °F 82% 30.02 in 6 mi SSW 3.5 mph - - Rain Light Rain
12:00 AM 41.0 °F 38.0 °F 39.2 °F 93% 30.01 in 5.6 mi SSW 4.6 mph - N/A Rain Light Rain
12:30 AM 41.0 °F 37.1 °F 39.2 °F 93% 30.01 in 5.6 mi SW 5.8 mph - N/A Rain Light Rain
1:00 AM 42 °F - 40 °F 89% 30.04 in 5 mi South 3.5 mph - - Rain Light Rain
1:00 AM 41.0 °F 39.0 °F 39.2 °F 93% 30.01 in 5.0 mi SSW 3.5 mph - N/A Rain Light Rain
1:30 AM 41.0 °F - 39.2 °F 93% 30.01 in 4.3 mi Variable 2.3 mph - N/A   Overcast
2:00 AM 42 °F - 40 °F 89% 30.06 in 7 mi WSW 5.8 mph - -   Clear
2:00 AM 41.0 °F 37.1 °F 39.2 °F 93% 30.04 in 6.2 mi WSW 5.8 mph - N/A   Overcast
2:30 AM 41.0 °F 36.4 °F 39.2 °F 93% 30.06 in 6.2 mi West 6.9 mph - N/A   Overcast
3:00 AM 41 °F - 39 °F 90% 30.10 in 8 mi West 5.8 mph - -   Clear
3:00 AM 41.0 °F 37.1 °F 39.2 °F 93% 30.06 in 6.2 mi West 5.8 mph - N/A   Scattered Clouds
3:30 AM 39.2 °F 35.9 °F 39.2 °F 100% 30.09 in 6.2 mi West 4.6 mph - N/A   Unknown
4:00 AM 39 °F - 38 °F 95% 30.14 in 6 mi WNW 6.9 mph - -   Partly Cloudy
4:00 AM 39.2 °F 34.2 °F 37.4 °F 93% 30.09 in - West 6.9 mph - N/A   Clear
4:30 AM 39.2 °F 34.2 °F 37.4 °F 93% 30.12 in - West 6.9 mph - N/A   Clear
5:00 AM 38 °F - 37 °F 95% 30.17 in 9 mi WNW 5.8 mph - -   Clear
5:00 AM 39.2 °F 35.9 °F 37.4 °F 93% 30.12 in - WNW 4.6 mph - N/A   Clear
5:30 AM 37.4 °F 33.8 °F 37.4 °F 100% 30.15 in - West 4.6 mph - N/A   Clear
6:00 AM 38 °F - 36 °F 91% 30.22 in 9 mi West 6.9 mph - -   Clear
6:00 AM 37.4 °F 32.1 °F 35.6 °F 93% 30.18 in - West 6.9 mph - N/A   Clear
6:30 AM 37.4 °F 33.8 °F 35.6 °F 93% 30.21 in - West 4.6 mph - N/A   Clear
7:00 AM 36 °F - 35 °F 92% 30.27 in 9 mi West 3.5 mph - -   Partly Cloudy
7:00 AM 37.4 °F 34.9 °F 35.6 °F 93% 30.24 in - West 3.5 mph - N/A   Clear
7:30 AM 35.6 °F 31.7 °F 33.8 °F 93% 30.24 in 6.2 mi West 4.6 mph - N/A   Unknown
8:00 AM 35 °F - 34 °F 92% 30.31 in 6 mi WSW 3.5 mph - -   Clear
8:00 AM 35.6 °F 32.8 °F 33.8 °F 93% 30.27 in 5.6 mi WSW 3.5 mph - N/A   Unknown
8:30 AM 35.6 °F 31.7 °F 33.8 °F 93% 30.30 in 6.2 mi WSW 4.6 mph - N/A   Unknown
9:00 AM 34 °F - 33 °F 94% 30.35 in 7 mi SSW 2.3 mph - -   Clear
9:00 AM 33.8 °F - 33.8 °F 100% 30.30 in 6.2 mi SSW 2.3 mph - N/A   Unknown
9:30 AM 35.6 °F 32.8 °F 33.8 °F 93% 30.33 in 5.6 mi WSW 3.5 mph - N/A   Unknown
10:00 AM 37 °F - 35 °F 91% 30.38 in 6 mi SW 3.5 mph - -   Clear
10:00 AM 37.4 °F 34.9 °F 35.6 °F 93% 30.36 in 6.2 mi SW 3.5 mph - N/A   Unknown
10:30 AM 39.2 °F 35.9 °F 35.6 °F 87% 30.39 in 6.2 mi WSW 4.6 mph - N/A   Unknown
11:00 AM 40 °F - 37 °F 83% 30.42 in 11 mi WSW 4.6 mph - -   Clear
11:00 AM 39.2 °F 35.9 °F 37.4 °F 93% 30.39 in 6.2 mi WSW 4.6 mph - N/A   Unknown
11:30 AM 42.8 °F 40.1 °F 37.4 °F 81% 30.42 in 6.2 mi SW 4.6 mph - N/A   Unknown
12:00 PM 43 °F - 37 °F 73% 30.45 in 37 mi SW 4.6 mph - -   Clear
12:00 PM 42.8 °F 40.1 °F 37.4 °F 81% 30.42 in 6.2 mi SW 4.6 mph - N/A   Unknown
12:30 PM 44.6 °F 41.4 °F 37.4 °F 76% 30.42 in 6.2 mi SSW 5.8 mph - N/A   Unknown
1:00 PM 44 °F - 38 °F 72% 30.45 in 12 mi SW 5.8 mph - -   Clear
1:00 PM 44.6 °F 41.4 °F 37.4 °F 76% 30.42 in 6.2 mi SW 5.8 mph - N/A   Unknown
1:30 PM 46.4 °F 44.3 °F 39.2 °F 76% 30.42 in 6.2 mi SSW 4.6 mph - N/A   Unknown
2:00 PM 47 °F - 39 °F 65% 30.45 in 37 mi SW 4.6 mph - -   Clear
2:00 PM 46.4 °F 44.3 °F 39.2 °F 76% 30.42 in 6.2 mi SW 4.6 mph - N/A   Unknown
2:30 PM 48.2 °F - 39.2 °F 71% 30.42 in 6.2 mi SW 3.5 mph - N/A   Unknown
3:00 PM 49 °F - 38 °F 54% 30.45 in 12 mi SSW 4.6 mph - -   Clear
3:00 PM 48.2 °F - 37.4 °F 66% 30.42 in 6.2 mi SSW 4.6 mph - N/A   Unknown
3:30 PM 48.2 °F - 37.4 °F 66% 30.45 in 6.2 mi SSW 4.6 mph - N/A   Unknown
4:00 PM 48 °F - 37 °F 56% 30.47 in 34 mi SW 5.8 mph - -   Clear
4:00 PM 48.2 °F - 37.4 °F 66% 30.45 in 6.2 mi SW 5.8 mph - N/A   Unknown
4:30 PM 46.4 °F 44.3 °F 37.4 °F 71% 30.45 in 6.2 mi South 4.6 mph - N/A   Unknown
5:00 PM 45 °F - 37 °F 66% 30.49 in 34 mi South 6.9 mph - -   Clear
5:00 PM 44.6 °F 40.7 °F 37.4 °F 76% 30.45 in 6.2 mi South 6.9 mph - N/A   Unknown
5:30 PM 44.6 °F 41.4 °F 37.4 °F 76% 30.45 in 6.2 mi South 5.8 mph - N/A   Unknown
6:00 PM 43 °F - 36 °F 70% 30.49 in 25 mi South 5.8 mph - -   Clear
6:00 PM 42.8 °F 39.3 °F 37.4 °F 81% 30.45 in 6.2 mi South 5.8 mph - N/A   Unknown
6:30 PM 42.8 °F 39.3 °F 35.6 °F 76% 30.48 in 6.2 mi South 5.8 mph - N/A   Unknown
7:00 PM 43 °F - 36 °F 70% 30.50 in 19 mi South 6.9 mph - -   Clear
7:00 PM 42.8 °F 39.3 °F 37.4 °F 81% 30.48 in - South 5.8 mph - N/A   Clear
7:30 PM 42.8 °F 38.6 °F 35.6 °F 76% 30.48 in - South 6.9 mph - N/A   Clear
8:00 PM 41 °F - 35 °F 73% 30.51 in 19 mi South 6.9 mph - -   Clear
8:00 PM 41.0 °F 36.4 °F 35.6 °F 81% 30.48 in - South 6.9 mph - N/A   Clear
8:30 PM 41.0 °F 36.4 °F 35.6 °F 81% 30.48 in - South 6.9 mph - N/A   Clear
9:00 PM 40 °F - 34 °F 72% 30.51 in 12 mi South 8.1 mph - -   Clear
9:00 PM 41.0 °F 35.8 °F 33.8 °F 76% 30.48 in - South 8.1 mph - N/A   Clear
9:30 PM 41.0 °F 35.8 °F 35.6 °F 81% 30.48 in - South 8.1 mph - N/A   Clear
10:00 PM 41 °F - 35 °F 70% 30.51 in 12 mi South 8.1 mph - -   Clear
10:00 PM 41.0 °F 35.8 °F 33.8 °F 76% 30.48 in - South 8.1 mph - N/A   Clear
10:30 PM 41.0 °F 36.4 °F 35.6 °F 81% 30.48 in - South 6.9 mph - N/A   Clear
11:00 PM 40 °F - 34 °F 72% 30.51 in 12 mi South 8.1 mph - -   Clear
11:00 PM 41.0 °F 35.8 °F 33.8 °F 76% 30.48 in - South 8.1 mph - N/A   Clear